Weather History for PFYU - October, 2011

Change the Weather History Date:

Saturday, October 15, 2011

  Actual Average Record
Temperature  
Mean Temperature 32 °F -  
Max Temperature 37 °F 21 °F 44 °F (2013)
Min Temperature 28 °F 10 °F -9 °F (2008)
Degree Days  
Heating Degree Days 32    
Moisture  
Dew Point 23 °F    
Average Humidity 67    
Maximum Humidity 75    
Minimum Humidity 56    
Precipitation  
Precipitation 0.00 in - - ()
Sea Level Pressure  
Sea Level Pressure 29.53 in    
Wind  
Wind Speed 8 mph (NE)    
Max Wind Speed 10 mph    
Max Gust Speed -    
Visibility 10 miles    
Events      
Averages and records for this station are not official NWS values.
T = Trace of Precipitation, MM = Missing Value Source: NWS Daily Summary

Daily Weather History Graph

Daily Weather History Graph

Search for Another Location

Airport or City:

Trip Planner

Search our weather history database for the weather conditions in past years. The results will help you decide how hot, cold, wet, or windy it might be!

Date:

Astronomy

Oct. 15, 2011 Rise Set
Actual Time 8:39 AM AKDT 6:12 PM AKDT
Civil Twilight 7:45 AM AKDT 7:06 PM AKDT
Nautical Twilight 6:44 AM AKDT 8:06 PM AKDT
Astronomical Twilight 5:42 AM AKDT 9:08 PM AKDT
Moon 5:43 PM AKDT (10/15) 2:43 PM AKDT (10/15)
Length of Visible Light 11h 21m
Length of Day
9h 33m
Waning Gibbous, 88% of the Moon is Illuminated
Oct 15
Waning Gibbous
Oct 19
Last Quarter
Oct 26
New
Nov 2
First Quarter
Nov 10
Full

Hourly Weather History & Observations

Time (AKDT) Temp. Windchill Dew Point Humidity Pressure Visibility Wind Dir Wind Speed Gust Speed Precip Events Conditions
12:16 AM 30.2 °F 23.4 °F 21.2 °F 69% 29.49 in 10.0 mi North 6.9 mph - N/A   Clear
12:36 AM 30.2 °F 23.4 °F 21.2 °F 69% 29.49 in 10.0 mi NNE 6.9 mph - N/A   Clear
12:56 AM 30.2 °F 21.9 °F 21.2 °F 69% 29.49 in 10.0 mi NE 9.2 mph - N/A   Partly Cloudy
1:16 AM 30.2 °F 21.9 °F 21.2 °F 69% 29.49 in 10.0 mi NE 9.2 mph - N/A   Partly Cloudy
1:36 AM 30.2 °F 21.9 °F 21.2 °F 69% 29.49 in 10.0 mi NE 9.2 mph - N/A   Mostly Cloudy
1:56 AM 30.2 °F 22.6 °F 21.2 °F 69% 29.49 in 10.0 mi NE 8.1 mph - N/A   Mostly Cloudy
2:16 AM 30.2 °F 21.9 °F 21.2 °F 69% 29.49 in 10.0 mi NE 9.2 mph - N/A   Overcast
2:36 AM 30.2 °F 21.3 °F 21.2 °F 69% 29.49 in 10.0 mi NE 10.4 mph - N/A   Overcast
2:56 AM 30.2 °F 21.9 °F 21.2 °F 69% 29.49 in 10.0 mi NE 9.2 mph - N/A   Overcast
3:16 AM 30.2 °F 22.6 °F 21.2 °F 69% 29.49 in 10.0 mi NNE 8.1 mph - N/A   Overcast
3:36 AM 30.2 °F 23.4 °F 21.2 °F 69% 29.50 in 10.0 mi NNE 6.9 mph - N/A   Overcast
3:56 AM 30.2 °F 23.4 °F 23.0 °F 75% 29.50 in 10.0 mi NNE 6.9 mph - N/A   Overcast
4:16 AM 30.2 °F 22.6 °F 21.2 °F 69% 29.50 in 10.0 mi NE 8.1 mph - N/A   Overcast
4:36 AM 30.2 °F 21.9 °F 23.0 °F 75% 29.50 in 10.0 mi NE 9.2 mph - N/A   Overcast
4:56 AM 30.2 °F 21.9 °F 23.0 °F 75% 29.50 in 10.0 mi NE 9.2 mph - N/A   Overcast
5:16 AM 30.2 °F 21.9 °F 23.0 °F 75% 29.50 in 10.0 mi NE 9.2 mph - N/A   Overcast
5:36 AM 30.2 °F 21.9 °F 23.0 °F 75% 29.50 in 10.0 mi NE 9.2 mph - N/A   Overcast
5:56 AM 30.2 °F 23.4 °F 23.0 °F 75% 29.50 in 10.0 mi NE 6.9 mph - N/A   Overcast
6:16 AM 30.2 °F 23.4 °F 23.0 °F 75% 29.50 in 10.0 mi NE 6.9 mph - N/A   Mostly Cloudy
6:36 AM 30.2 °F 23.4 °F 23.0 °F 75% 29.50 in 10.0 mi NE 6.9 mph - N/A   Overcast
6:56 AM 30.2 °F 23.4 °F 21.2 °F 69% 29.50 in 10.0 mi NE 6.9 mph - N/A   Mostly Cloudy
7:16 AM 30.2 °F 24.3 °F 21.2 °F 69% 29.51 in 10.0 mi NE 5.8 mph - N/A   Partly Cloudy
7:36 AM 30.2 °F 24.3 °F 21.2 °F 69% 29.51 in 10.0 mi NNE 5.8 mph - N/A   Clear
7:56 AM 30.2 °F 22.6 °F 21.2 °F 69% 29.51 in 10.0 mi NNE 8.1 mph - N/A   Clear
8:16 AM 30.2 °F 23.4 °F 21.2 °F 69% 29.51 in 10.0 mi NNE 6.9 mph - N/A   Clear
8:36 AM 30.2 °F 24.3 °F 21.2 °F 69% 29.51 in 10.0 mi NE 5.8 mph - N/A   Clear
8:56 AM 30.2 °F 26.7 °F 21.2 °F 69% 29.52 in 10.0 mi NE 3.5 mph - N/A   Partly Cloudy
9:16 AM 28.4 °F 24.6 °F 21.2 °F 74% 29.53 in 10.0 mi NNE 3.5 mph - N/A   Overcast
9:36 AM 30.2 °F 24.3 °F 21.2 °F 69% 29.53 in 10.0 mi NE 5.8 mph - N/A   Overcast
9:56 AM 30.2 °F 22.6 °F 21.2 °F 69% 29.53 in 10.0 mi NNE 8.1 mph - N/A   Overcast
10:16 AM 30.2 °F 21.9 °F 21.2 °F 69% 29.53 in 10.0 mi NNE 9.2 mph - N/A   Overcast
10:36 AM 30.2 °F 21.9 °F 21.2 °F 69% 29.53 in 10.0 mi NE 9.2 mph - N/A   Overcast
10:56 AM 32.0 °F 24.2 °F 21.2 °F 64% 29.54 in 10.0 mi NE 9.2 mph - N/A   Overcast
11:16 AM 32.0 °F 23.6 °F 21.2 °F 64% 29.54 in 10.0 mi NE 10.4 mph - N/A   Overcast
11:36 AM 33.8 °F 25.8 °F 23.0 °F 65% 29.54 in 10.0 mi ENE 10.4 mph - N/A   Overcast
11:56 AM 33.8 °F 26.4 °F 23.0 °F 65% 29.54 in 10.0 mi ENE 9.2 mph - N/A   Overcast
12:16 PM 33.8 °F 25.8 °F 23.0 °F 65% 29.55 in 10.0 mi NE 10.4 mph - N/A   Scattered Clouds
12:36 PM 35.6 °F 28.6 °F 23.0 °F 60% 29.55 in 10.0 mi NE 9.2 mph - N/A   Partly Cloudy
12:56 PM 35.6 °F 28.6 °F 23.0 °F 60% 29.55 in 10.0 mi NE 9.2 mph - N/A   Scattered Clouds
1:16 PM 35.6 °F 29.9 °F 23.0 °F 60% 29.55 in 10.0 mi NE 6.9 mph - N/A   Scattered Clouds
1:36 PM 37.4 °F 32.8 °F 24.8 °F 60% 29.56 in 10.0 mi NE 5.8 mph - N/A   Mostly Cloudy
1:56 PM 37.4 °F 31.4 °F 24.8 °F 60% 29.55 in 10.0 mi NE 8.1 mph - N/A   Partly Cloudy
2:16 PM 37.4 °F 31.4 °F 23.0 °F 56% 29.56 in 10.0 mi NNE 8.1 mph - N/A   Clear
2:36 PM 37.4 °F 32.1 °F 24.8 °F 60% 29.56 in 10.0 mi NE 6.9 mph - N/A   Mostly Cloudy
2:56 PM 37.4 °F 32.1 °F 24.8 °F 60% 29.56 in 10.0 mi NE 6.9 mph - N/A   Scattered Clouds
3:16 PM 37.4 °F 32.1 °F 24.8 °F 60% 29.56 in 10.0 mi NNE 6.9 mph - N/A   Mostly Cloudy
3:36 PM 37.4 °F 32.1 °F 24.8 °F 60% 29.56 in 10.0 mi NNE 6.9 mph - N/A   Overcast
3:56 PM 37.4 °F 31.4 °F 24.8 °F 60% 29.56 in 10.0 mi NNE 8.1 mph - N/A   Partly Cloudy
4:16 PM 37.4 °F 32.1 °F 24.8 °F 60% 29.57 in 10.0 mi NE 6.9 mph - N/A   Clear
4:36 PM 37.4 °F 33.8 °F 24.8 °F 60% 29.57 in 10.0 mi ENE 4.6 mph - N/A   Scattered Clouds
4:56 PM 37.4 °F 32.1 °F 24.8 °F 60% 29.57 in 10.0 mi NE 6.9 mph - N/A   Overcast
5:16 PM 35.6 °F 29.2 °F 24.8 °F 65% 29.57 in 10.0 mi NE 8.1 mph - N/A   Overcast
5:36 PM 35.6 °F 29.9 °F 24.8 °F 65% 29.57 in 10.0 mi ENE 6.9 mph - N/A   Mostly Cloudy
5:56 PM 35.6 °F 31.7 °F 24.8 °F 65% 29.58 in 10.0 mi ENE 4.6 mph - N/A   Scattered Clouds
6:16 PM 35.6 °F 32.8 °F 24.8 °F 65% 29.58 in 10.0 mi NNE 3.5 mph - N/A   Partly Cloudy
6:36 PM 35.6 °F 32.8 °F 24.8 °F 65% 29.58 in 10.0 mi NNE 3.5 mph - N/A   Mostly Cloudy
6:56 PM 33.8 °F - 24.8 °F 70% 29.59 in 10.0 mi Calm Calm - N/A   Partly Cloudy
7:16 PM 33.8 °F - 24.8 °F 70% 29.59 in 10.0 mi Calm Calm - N/A   Mostly Cloudy
7:36 PM 33.8 °F - 24.8 °F 70% 29.59 in 10.0 mi Calm Calm - N/A   Overcast
7:56 PM 33.8 °F - 24.8 °F 70% 29.60 in 10.0 mi Calm Calm - N/A   Overcast
8:16 PM 33.8 °F 30.8 °F 24.8 °F 70% 29.60 in 10.0 mi NNE 3.5 mph - N/A   Overcast
8:36 PM 33.8 °F 30.8 °F 24.8 °F 70% 29.60 in 10.0 mi NNE 3.5 mph - N/A   Overcast
8:56 PM 33.8 °F - 24.8 °F 70% 29.61 in 10.0 mi Calm Calm - N/A   Mostly Cloudy
9:16 PM 33.8 °F 30.8 °F 24.8 °F 70% 29.61 in 10.0 mi North 3.5 mph - N/A   Overcast
9:36 PM 33.8 °F 30.8 °F 24.8 °F 70% 29.61 in 10.0 mi North 3.5 mph - N/A   Overcast
9:56 PM 33.8 °F - 24.8 °F 70% 29.62 in 10.0 mi Calm Calm - N/A   Overcast
10:16 PM 33.8 °F 30.8 °F 24.8 °F 70% 29.62 in 10.0 mi NNE 3.5 mph - N/A   Overcast
10:36 PM 33.8 °F 30.8 °F 24.8 °F 70% 29.63 in 10.0 mi North 3.5 mph - N/A   Overcast
10:56 PM 33.8 °F 30.8 °F 24.8 °F 70% 29.63 in 10.0 mi NNE 3.5 mph - N/A   Overcast
11:16 PM 33.8 °F 29.6 °F 24.8 °F 70% 29.63 in 10.0 mi NNE 4.6 mph - N/A   Overcast
11:36 PM 33.8 °F 29.6 °F 24.8 °F 70% 29.64 in 10.0 mi NNE 4.6 mph - N/A   Overcast
11:56 PM 33.8 °F 29.6 °F 24.8 °F 70% 29.64 in 10.0 mi NNE 4.6 mph - N/A   Overcast